Nunarsuit

KL  EN  DA
ASIAQ
Weather Now GREENLAND SURVEY
Updated [WGT/WGST] Temperature [°C] Wind [m/s] Air pressure [hPa] Relative humidity [%] Precipitation [mm]
Present Wind chill Speed Max
18.04 00:00-4,8-14,011,8 ⇘14,9101354n/a
17.04 23:00-4,7-14,112,4 ⇘16,0101356n/a
17.04 22:00-4,7-14,413,4 ⇘18,0101357n/a
17.04 21:00-4,8-14,814,4 ⇘18,0101355n/a
17.04 20:00-4,6-14,514,4 ⇘18,5101257n/a
17.04 19:00-4,6-14,714,9 ⇘19,6101253n/a
17.04 18:00-4,8-14,713,9 ⇘18,0101254n/a
17.04 17:00-4,8-14,713,9 ⇘17,0101155n/a
17.04 16:00-5,0-14,913,9 ⇘18,0101154n/a
17.04 15:00-5,3-15,213,4 ⇘17,0101056n/a
17.04 14:00-5,3-15,213,4 ⇘18,0101058n/a
17.04 13:00-5,8-16,314,9 ⇘18,5100956n/a
17.04 12:00-5,4-15,513,9 ⇘17,5100953n/a
17.04 11:00-5,5-15,613,9 ⇘18,0100955n/a
17.04 10:00-5,8-15,913,4 ⇘17,5100853n/a
17.04 09:00-5,7-15,713,4 ⇘17,0100853n/a
17.04 08:00-6,0-16,313,9 ⇘18,0100756n/a
17.04 07:00-6,2-16,714,4 ⇘18,0100757n/a
17.04 06:00-6,7-17,113,4 ⇘16,5100759n/a
17.04 05:00-6,8-17,413,9 ⇘17,0100659n/a
17.04 04:00-6,4-17,315,4 ⇘19,0100656n/a
17.04 03:00-6,7-17,514,9 ⇘19,0100556n/a
17.04 02:00-6,4-17,717,0 ⇘20,6100559n/a
17.04 01:00-6,3-17,717,5 ⇘21,6100562n/a
17.04 00:00-6,6-18,017,0 ⇘23,2100464n/a
Position: (60.76361111,-48.454444444)

[Back]